Time,TemperatureF,DewpointF,PressureIn,WindDirection,WindDirectionDegrees,WindSpeedMPH,WindSpeedGustMPH,Humidity,HourlyPrecipIn,Conditions,Clouds,dailyrainin,SoftwareType,DateUTC
2013-01-30 00:00:00,62.3,58.1,30.03,SSE,168,0.0,5.0,86,0.00,,---,0.00,VWS V14.01,2013-01-30 05:00:00,
2013-01-30 00:03:00,62.3,58.1,30.03,SSW,211,3.0,5.0,86,0.00,,---,0.00,VWS V14.01,2013-01-30 05:03:00,
2013-01-30 00:04:00,62.3,58.1,30.03,SW,219,1.0,5.0,86,0.00,,---,0.00,VWS V14.01,2013-01-30 05:04:00,
2013-01-30 00:09:00,62.4,58.2,30.03,SW,214,4.0,5.0,86,0.00,,---,0.00,VWS V14.01,2013-01-30 05:09:00,
2013-01-30 00:14:00,62.6,58.4,30.03,SSW,209,4.0,5.0,86,0.00,,---,0.00,VWS V14.01,2013-01-30 05:14:00,
2013-01-30 00:19:00,62.7,58.5,30.03,SSW,207,5.0,5.0,86,0.00,,---,0.00,VWS V14.01,2013-01-30 05:19:00,
2013-01-30 00:24:00,62.7,58.5,30.02,SE,138,0.0,5.0,86,0.00,,---,0.00,VWS V14.01,2013-01-30 05:24:00,
2013-01-30 00:29:00,62.6,58.4,30.02,South,184,1.0,4.0,86,0.00,,---,0.00,VWS V14.01,2013-01-30 05:29:00,
2013-01-30 00:30:00,62.6,58.0,30.02,SE,138,0.0,5.0,85,0.00,,---,0.00,VWS V14.01,2013-01-30 05:30:00,
2013-01-30 00:34:00,62.5,58.3,30.02,SW,233,4.0,5.0,86,0.00,,---,0.00,VWS V14.01,2013-01-30 05:34:00,
2013-01-30 00:39:00,62.5,58.3,30.02,South,180,4.0,5.0,86,0.00,,---,0.00,VWS V14.01,2013-01-30 05:39:00,
2013-01-30 00:44:00,62.3,58.1,30.02,SSE,157,2.0,5.0,86,0.00,,---,0.00,VWS V14.01,2013-01-30 05:44:00,
2013-01-30 00:49:00,62.2,58.0,30.02,WSW,254,3.0,5.0,86,0.00,,---,0.00,VWS V14.01,2013-01-30 05:49:00,
2013-01-30 00:54:00,62.1,58.2,30.01,South,169,1.0,5.0,87,0.00,,---,0.00,VWS V14.01,2013-01-30 05:54:00,
2013-01-30 00:59:00,62.0,58.1,30.01,SSW,207,1.0,4.0,87,0.00,,---,0.00,VWS V14.01,2013-01-30 05:59:00,
2013-01-30 01:00:00,62.1,58.2,30.01,SE,138,1.0,5.0,87,0.00,,---,0.00,VWS V14.01,2013-01-30 06:00:00,
2013-01-30 01:04:00,62.0,58.4,30.01,South,189,7.0,7.0,88,0.00,,---,0.00,VWS V14.01,2013-01-30 06:04:00,
2013-01-30 01:09:00,62.0,58.4,30.01,SW,214,2.0,7.0,88,0.00,,---,0.00,VWS V14.01,2013-01-30 06:09:00,
2013-01-30 01:14:00,62.1,58.5,30.01,SSW,211,4.0,8.0,88,0.00,,---,0.00,VWS V14.01,2013-01-30 06:14:00,
2013-01-30 01:19:00,62.1,58.8,30.01,SSE,168,6.0,9.0,89,0.00,,---,0.00,VWS V14.01,2013-01-30 06:19:00,
2013-01-30 01:24:00,62.2,58.9,30.01,SE,135,1.0,12.0,89,0.00,,---,0.00,VWS V14.01,2013-01-30 06:24:00,
2013-01-30 01:29:00,62.2,58.9,30.00,South,184,2.0,9.0,89,0.00,,---,0.00,VWS V14.01,2013-01-30 06:29:00,
2013-01-30 01:30:00,62.2,58.9,30.01,SSE,157,1.0,12.0,89,0.00,,---,0.00,VWS V14.01,2013-01-30 06:30:00,
2013-01-30 01:34:00,62.2,58.9,30.01,SE,132,4.0,9.0,89,0.00,,---,0.00,VWS V14.01,2013-01-30 06:34:00,
2013-01-30 01:39:00,62.3,59.3,30.01,South,179,4.0,10.0,90,0.00,,---,0.00,VWS V14.01,2013-01-30 06:39:00,
2013-01-30 01:44:00,62.3,59.3,30.00,SSE,158,6.0,10.0,90,0.00,,---,0.00,VWS V14.01,2013-01-30 06:44:00,
2013-01-30 01:49:00,62.3,59.3,30.00,SSE,149,2.0,10.0,90,0.00,,---,0.00,VWS V14.01,2013-01-30 06:49:00,
2013-01-30 01:54:00,62.3,59.3,30.00,SSW,192,3.0,10.0,90,0.00,,---,0.00,VWS V14.01,2013-01-30 06:54:00,
2013-01-30 01:59:00,62.2,59.5,29.99,SSW,206,4.0,6.0,91,0.00,,---,0.00,VWS V14.01,2013-01-30 06:59:00,
2013-01-30 02:00:00,62.3,59.3,30.00,SW,217,1.0,10.0,90,0.00,,---,0.00,VWS V14.01,2013-01-30 07:00:00,
2013-01-30 02:04:00,62.1,59.1,29.99,South,190,2.0,6.0,90,0.00,,---,0.00,VWS V14.01,2013-01-30 07:04:00,
2013-01-30 02:09:00,62.0,59.3,29.99,SW,234,4.0,6.0,91,0.00,,---,0.00,VWS V14.01,2013-01-30 07:09:00,
2013-01-30 02:14:00,62.0,59.3,29.99,South,187,4.0,7.0,91,0.00,,---,0.00,VWS V14.01,2013-01-30 07:14:00,
2013-01-30 02:19:00,62.0,59.3,29.98,SW,225,7.0,7.0,91,0.00,,---,0.00,VWS V14.01,2013-01-30 07:19:00,
2013-01-30 02:24:00,62.1,59.8,29.98,South,190,2.0,11.0,92,0.00,,---,0.00,VWS V14.01,2013-01-30 07:24:00,
2013-01-30 02:29:00,62.2,59.8,29.98,SSW,196,4.0,5.0,92,0.00,,---,0.00,VWS V14.01,2013-01-30 07:29:00,
2013-01-30 02:30:00,62.1,59.8,29.98,SSE,168,2.0,11.0,92,0.00,,---,0.00,VWS V14.01,2013-01-30 07:30:00,
2013-01-30 02:34:00,62.2,59.8,29.98,SSW,196,5.0,5.0,92,0.00,,---,0.00,VWS V14.01,2013-01-30 07:34:00,
2013-01-30 02:39:00,62.3,60.0,29.98,SW,214,7.0,8.0,92,0.00,,---,0.00,VWS V14.01,2013-01-30 07:39:00,
2013-01-30 02:44:00,62.3,60.0,29.98,South,188,3.0,10.0,92,0.00,,---,0.00,VWS V14.01,2013-01-30 07:44:00,
2013-01-30 02:49:00,62.4,60.0,29.98,SSW,203,5.0,10.0,92,0.00,,---,0.00,VWS V14.01,2013-01-30 07:49:00,
2013-01-30 02:54:00,62.4,60.0,29.98,South,175,4.0,10.0,92,0.00,,---,0.00,VWS V14.01,2013-01-30 07:54:00,
2013-01-30 02:59:00,62.5,60.2,29.97,South,190,5.0,8.0,92,0.00,,---,0.00,VWS V14.01,2013-01-30 07:59:00,
2013-01-30 03:00:00,62.4,60.0,29.98,South,180,4.0,10.0,92,0.00,,---,0.00,VWS V14.01,2013-01-30 08:00:00,
2013-01-30 03:04:00,62.5,60.2,29.97,SE,141,2.0,8.0,92,0.00,,---,0.00,VWS V14.01,2013-01-30 08:04:00,
2013-01-30 03:10:00,62.4,60.0,29.97,SW,222,3.0,8.0,92,0.00,,---,0.00,VWS V14.01,2013-01-30 08:10:00,
2013-01-30 03:15:00,62.4,60.0,29.97,SE,145,2.0,8.0,92,0.00,,---,0.00,VWS V14.01,2013-01-30 08:15:00,
2013-01-30 03:20:00,62.4,60.0,29.97,South,173,2.0,8.0,92,0.00,,---,0.00,VWS V14.01,2013-01-30 08:20:00,
2013-01-30 03:25:00,62.4,60.0,29.97,SSW,194,1.0,8.0,92,0.00,,---,0.00,VWS V14.01,2013-01-30 08:25:00,
2013-01-30 03:30:00,62.4,60.0,29.97,SSW,207,4.0,8.0,92,0.00,,---,0.00,VWS V14.01,2013-01-30 08:30:00,
2013-01-30 03:35:00,62.4,60.3,29.96,SSE,157,2.0,8.0,93,0.00,,---,0.00,VWS V14.01,2013-01-30 08:35:00,
2013-01-30 03:40:00,62.4,60.3,29.96,West,264,5.0,8.0,93,0.00,,---,0.00,VWS V14.01,2013-01-30 08:40:00,
2013-01-30 03:45:00,62.4,60.3,29.96,South,171,2.0,8.0,93,0.00,,---,0.00,VWS V14.01,2013-01-30 08:45:00,
2013-01-30 03:50:00,62.4,60.3,29.95,SSE,167,5.0,8.0,93,0.00,,---,0.00,VWS V14.01,2013-01-30 08:50:00,
2013-01-30 03:55:00,62.6,60.5,29.95,SSW,211,5.0,9.0,93,0.00,,---,0.00,VWS V14.01,2013-01-30 08:55:00,
2013-01-30 04:00:00,62.8,60.8,29.95,South,179,2.0,6.0,93,0.00,,---,0.00,VWS V14.01,2013-01-30 09:00:00,
2013-01-30 04:05:00,63.1,61.0,29.95,West,263,3.0,7.0,93,0.00,,---,0.00,VWS V14.01,2013-01-30 09:05:00,
2013-01-30 04:10:00,63.4,61.3,29.95,South,182,2.0,11.0,93,0.00,,---,0.00,VWS V14.01,2013-01-30 09:10:00,
2013-01-30 04:15:00,63.7,61.3,29.95,South,176,6.0,13.0,92,0.00,,---,0.00,VWS V14.01,2013-01-30 09:15:00,
2013-01-30 04:20:00,63.9,61.5,29.95,South,174,5.0,13.0,92,0.00,,---,0.00,VWS V14.01,2013-01-30 09:20:00,
2013-01-30 04:25:00,64.1,61.4,29.94,WSW,241,5.0,13.0,91,0.00,,---,0.00,VWS V14.01,2013-01-30 09:25:00,
2013-01-30 04:30:00,64.3,61.6,29.95,SW,226,5.0,6.0,91,0.00,,---,0.00,VWS V14.01,2013-01-30 09:30:00,
2013-01-30 04:35:00,64.5,61.8,29.94,South,179,4.0,11.0,91,0.00,,---,0.00,VWS V14.01,2013-01-30 09:35:00,
2013-01-30 04:40:00,64.7,61.7,29.94,SSE,159,2.0,11.0,90,0.00,,---,0.00,VWS V14.01,2013-01-30 09:40:00,
2013-01-30 04:45:00,64.8,61.8,29.94,West,260,7.0,11.0,90,0.00,,---,0.00,VWS V14.01,2013-01-30 09:45:00,
2013-01-30 04:50:00,65.0,62.0,29.94,WSW,244,8.0,14.0,90,0.00,,---,0.00,VWS V14.01,2013-01-30 09:50:00,
2013-01-30 04:55:00,65.1,62.1,29.94,SSW,206,7.0,14.0,90,0.00,,---,0.00,VWS V14.01,2013-01-30 09:55:00,
2013-01-30 05:00:00,65.1,61.8,29.93,WNW,300,4.0,7.0,89,0.00,,---,0.00,VWS V14.01,2013-01-30 10:00:00,
2013-01-30 05:05:00,65.1,62.1,29.93,South,178,1.0,12.0,90,0.00,,---,0.00,VWS V14.01,2013-01-30 10:05:00,
2013-01-30 05:10:00,65.0,62.0,29.93,SE,146,6.0,12.0,90,0.00,,---,0.00,VWS V14.01,2013-01-30 10:10:00,
2013-01-30 05:15:00,65.1,61.8,29.93,South,189,5.0,12.0,89,0.00,,---,0.00,VWS V14.01,2013-01-30 10:15:00,
2013-01-30 05:20:00,65.1,61.8,29.93,WSW,253,5.0,12.0,89,0.00,,---,0.00,VWS V14.01,2013-01-30 10:20:00,
2013-01-30 05:25:00,65.1,61.8,29.92,SSW,209,4.0,12.0,89,0.00,,---,0.00,VWS V14.01,2013-01-30 10:25:00,
2013-01-30 05:30:00,65.1,61.8,29.92,SW,214,10.0,10.0,89,0.00,,---,0.00,VWS V14.01,2013-01-30 10:30:00,
2013-01-30 05:35:00,65.1,61.8,29.92,SW,221,7.0,10.0,89,0.00,,---,0.00,VWS V14.01,2013-01-30 10:35:00,
2013-01-30 05:40:00,65.2,61.9,29.92,SSE,153,7.0,10.0,89,0.00,,---,0.00,VWS V14.01,2013-01-30 10:40:00,
2013-01-30 05:45:00,65.2,61.9,29.92,South,191,1.0,12.0,89,0.00,,---,0.00,VWS V14.01,2013-01-30 10:45:00,
2013-01-30 05:51:00,65.2,61.9,29.92,SSW,196,2.0,12.0,89,0.00,,---,0.00,VWS V14.01,2013-01-30 10:51:00,
2013-01-30 05:56:00,65.1,61.8,29.91,WSW,238,4.0,5.0,89,0.00,,---,0.00,VWS V14.01,2013-01-30 10:56:00,
2013-01-30 06:00:00,65.1,61.8,29.91,SSW,198,6.0,12.0,89,0.00,,---,0.00,VWS V14.01,2013-01-30 11:00:00,
2013-01-30 06:01:00,65.1,61.8,29.91,West,262,2.0,7.0,89,0.00,,---,0.00,VWS V14.01,2013-01-30 11:01:00,
2013-01-30 06:06:00,65.1,61.8,29.90,SW,236,5.0,7.0,89,0.00,,---,0.00,VWS V14.01,2013-01-30 11:06:00,
2013-01-30 06:11:00,65.1,61.8,29.90,South,191,4.0,7.0,89,0.00,,---,0.00,VWS V14.01,2013-01-30 11:11:00,
2013-01-30 06:16:00,65.1,61.8,29.90,SSE,148,6.0,7.0,89,0.00,,---,0.00,VWS V14.01,2013-01-30 11:16:00,
2013-01-30 06:21:00,65.0,62.0,29.91,SW,233,1.0,7.0,90,0.00,,---,0.00,VWS V14.01,2013-01-30 11:21:00,
2013-01-30 06:26:00,65.0,62.0,29.91,SSW,207,6.0,6.0,90,0.00,,---,0.00,VWS V14.01,2013-01-30 11:26:00,
2013-01-30 06:30:00,65.0,62.0,29.91,South,171,5.0,9.0,90,0.00,,---,0.00,VWS V14.01,2013-01-30 11:30:00,
2013-01-30 06:31:00,65.0,62.0,29.91,SSW,202,5.0,12.0,90,0.00,,---,0.00,VWS V14.01,2013-01-30 11:31:00,
2013-01-30 06:36:00,65.0,62.0,29.91,SSW,199,4.0,13.0,90,0.00,,---,0.00,VWS V14.01,2013-01-30 11:36:00,
2013-01-30 06:41:00,65.0,62.0,29.90,SSW,211,4.0,13.0,90,0.00,,---,0.00,VWS V14.01,2013-01-30 11:41:00,
2013-01-30 06:46:00,65.0,62.0,29.91,NW,319,4.0,13.0,90,0.00,,---,0.00,VWS V14.01,2013-01-30 11:46:00,
2013-01-30 06:51:00,65.0,62.0,29.90,West,276,5.0,13.0,90,0.00,,---,0.00,VWS V14.01,2013-01-30 11:51:00,
2013-01-30 06:56:00,65.0,62.0,29.90,WSW,248,9.0,9.0,90,0.00,,---,0.00,VWS V14.01,2013-01-30 11:56:00,
2013-01-30 07:00:00,65.0,62.0,29.90,South,186,4.0,13.0,90,0.00,,---,0.00,VWS V14.01,2013-01-30 12:00:00,
2013-01-30 07:01:00,65.0,62.0,29.90,WSW,238,2.0,9.0,90,0.00,,---,0.00,VWS V14.01,2013-01-30 12:01:00,
2013-01-30 07:06:00,65.0,62.0,29.90,SSE,152,5.0,9.0,90,0.00,,---,0.00,VWS V14.01,2013-01-30 12:06:00,
2013-01-30 07:11:00,65.0,62.0,29.90,WSW,250,5.0,9.0,90,0.00,,---,0.00,VWS V14.01,2013-01-30 12:11:00,
2013-01-30 07:16:00,65.2,62.2,29.89,South,186,4.0,12.0,90,0.00,,---,0.00,VWS V14.01,2013-01-30 12:16:00,
2013-01-30 07:21:00,65.2,62.2,29.89,SW,227,8.0,12.0,90,0.00,,---,0.00,VWS V14.01,2013-01-30 12:21:00,
2013-01-30 07:26:00,65.2,62.2,29.89,SW,227,5.0,15.0,90,0.00,,---,0.00,VWS V14.01,2013-01-30 12:26:00,
2013-01-30 07:30:00,65.2,62.2,29.89,WSW,240,6.0,12.0,90,0.00,,---,0.00,VWS V14.01,2013-01-30 12:30:00,
2013-01-30 07:31:00,65.3,62.3,29.89,South,171,7.0,15.0,90,0.00,,---,0.00,VWS V14.01,2013-01-30 12:31:00,
2013-01-30 07:36:00,65.3,62.3,29.89,SE,146,2.0,15.0,90,0.00,,---,0.00,VWS V14.01,2013-01-30 12:36:00,
2013-01-30 07:41:00,65.4,62.4,29.89,SW,217,7.0,15.0,90,0.00,,---,0.00,VWS V14.01,2013-01-30 12:41:00,
2013-01-30 07:46:00,65.5,62.5,29.89,SW,219,8.0,15.0,90,0.00,,---,0.00,VWS V14.01,2013-01-30 12:46:00,
2013-01-30 07:51:00,65.5,62.5,29.89,South,191,2.0,15.0,90,0.00,,---,0.00,VWS V14.01,2013-01-30 12:51:00,
2013-01-30 07:56:00,65.5,62.5,29.88,SW,236,2.0,7.0,90,0.00,,---,0.00,VWS V14.01,2013-01-30 12:56:00,
2013-01-30 08:00:00,65.5,62.5,29.88,West,263,7.0,15.0,90,0.00,,---,0.00,VWS V14.01,2013-01-30 13:00:00,
2013-01-30 08:01:00,65.5,62.5,29.88,WNW,292,1.0,8.0,90,0.00,,---,0.00,VWS V14.01,2013-01-30 13:01:00,
2013-01-30 08:06:00,65.6,62.6,29.88,South,189,5.0,9.0,90,0.00,,---,0.00,VWS V14.01,2013-01-30 13:06:00,
2013-01-30 08:11:00,65.7,62.4,29.88,South,190,8.0,10.0,89,0.00,,---,0.00,VWS V14.01,2013-01-30 13:11:00,
2013-01-30 08:16:00,65.8,62.5,29.87,ESE,117,4.0,10.0,89,0.00,,---,0.00,VWS V14.01,2013-01-30 13:16:00,
2013-01-30 08:21:00,65.9,62.6,29.87,ENE,58,1.0,11.0,89,0.00,,---,0.00,VWS V14.01,2013-01-30 13:21:00,
2013-01-30 08:26:00,65.9,62.6,29.87,SW,230,2.0,7.0,89,0.00,,---,0.00,VWS V14.01,2013-01-30 13:26:00,
2013-01-30 08:30:00,65.9,62.6,29.87,SSE,159,7.0,11.0,89,0.00,,---,0.00,VWS V14.01,2013-01-30 13:30:00,
2013-01-30 08:31:00,66.0,62.7,29.87,South,191,5.0,12.0,89,0.00,,---,0.00,VWS V14.01,2013-01-30 13:31:00,
2013-01-30 08:36:00,66.1,62.5,29.87,WSW,244,8.0,12.0,88,0.00,,---,0.00,VWS V14.01,2013-01-30 13:36:00,
2013-01-30 08:41:00,66.3,62.6,29.86,SSW,199,1.0,19.0,88,0.00,,---,0.00,VWS V14.01,2013-01-30 13:41:00,
2013-01-30 08:46:00,66.3,62.6,29.86,SW,232,10.0,19.0,88,0.00,,---,0.00,VWS V14.01,2013-01-30 13:46:00,
2013-01-30 08:51:00,66.4,62.4,29.86,SW,221,16.0,19.0,87,0.00,,---,0.00,VWS V14.01,2013-01-30 13:51:00,
2013-01-30 08:56:00,66.5,62.5,29.86,West,272,5.0,7.0,87,0.00,,---,0.00,VWS V14.01,2013-01-30 13:56:00,
2013-01-30 09:00:00,66.5,62.5,29.86,South,190,5.0,19.0,87,0.00,,---,0.00,VWS V14.01,2013-01-30 14:00:00,
2013-01-30 09:01:00,66.6,62.6,29.86,SSW,192,5.0,9.0,87,0.00,,---,0.00,VWS V14.01,2013-01-30 14:01:00,
2013-01-30 09:06:00,66.7,62.7,29.86,South,177,9.0,15.0,87,0.00,,---,0.00,VWS V14.01,2013-01-30 14:06:00,
2013-01-30 09:11:00,66.7,62.4,29.86,West,269,8.0,15.0,86,0.00,,---,0.00,VWS V14.01,2013-01-30 14:11:00,
2013-01-30 09:16:00,66.9,62.6,29.86,WSW,246,15.0,15.0,86,0.00,,---,0.00,VWS V14.01,2013-01-30 14:16:00,
2013-01-30 09:22:00,66.9,62.6,29.85,SSW,208,8.0,15.0,86,0.00,,---,0.00,VWS V14.01,2013-01-30 14:22:00,
2013-01-30 09:27:00,67.0,62.7,29.85,South,188,2.0,6.0,86,0.00,,---,0.00,VWS V14.01,2013-01-30 14:27:00,
2013-01-30 09:30:00,67.0,62.7,29.85,SW,215,2.0,15.0,86,0.00,,---,0.00,VWS V14.01,2013-01-30 14:30:00,
2013-01-30 09:32:00,67.0,62.7,29.85,South,178,6.0,6.0,86,0.00,,---,0.00,VWS V14.01,2013-01-30 14:32:00,
2013-01-30 09:37:00,67.1,62.8,29.85,SSW,203,3.0,12.0,86,0.00,,---,0.00,VWS V14.01,2013-01-30 14:37:00,
2013-01-30 09:42:00,67.1,62.8,29.85,SSW,206,5.0,12.0,86,0.00,,---,0.00,VWS V14.01,2013-01-30 14:42:00,
2013-01-30 09:47:00,67.2,62.9,29.85,SW,219,3.0,12.0,86,0.00,,---,0.00,VWS V14.01,2013-01-30 14:47:00,
2013-01-30 09:52:00,67.2,62.9,29.85,SW,217,6.0,12.0,86,0.00,,---,0.00,VWS V14.01,2013-01-30 14:52:00,
2013-01-30 09:57:00,67.2,62.9,29.85,South,184,6.0,9.0,86,0.00,,---,0.00,VWS V14.01,2013-01-30 14:57:00,
2013-01-30 10:00:00,67.2,62.9,29.85,SW,221,10.0,12.0,86,0.00,,---,0.00,VWS V14.01,2013-01-30 15:00:00,
2013-01-30 10:02:00,67.3,63.0,29.85,SW,226,5.0,12.0,86,0.00,,---,0.00,VWS V14.01,2013-01-30 15:02:00,
2013-01-30 10:07:00,67.3,63.0,29.85,SSE,161,9.0,12.0,86,0.00,,---,0.00,VWS V14.01,2013-01-30 15:07:00,
2013-01-30 10:12:00,67.3,63.0,29.84,South,176,5.0,12.0,86,0.00,,---,0.00,VWS V14.01,2013-01-30 15:12:00,
2013-01-30 10:17:00,67.4,63.1,29.84,South,191,5.0,12.0,86,0.00,,---,0.00,VWS V14.01,2013-01-30 15:17:00,
2013-01-30 10:22:00,67.4,63.1,29.84,SW,214,7.0,12.0,86,0.00,,---,0.00,VWS V14.01,2013-01-30 15:22:00,
2013-01-30 10:27:00,67.5,63.2,29.84,SW,229,10.0,10.0,86,0.00,,---,0.00,VWS V14.01,2013-01-30 15:27:00,
2013-01-30 10:30:00,67.5,63.2,29.84,SSE,168,8.0,12.0,86,0.00,,---,0.00,VWS V14.01,2013-01-30 15:30:00,
2013-01-30 10:32:00,67.6,63.3,29.84,SSW,192,12.0,12.0,86,0.00,,---,0.00,VWS V14.01,2013-01-30 15:32:00,
2013-01-30 10:37:00,67.7,63.4,29.83,SW,214,7.0,12.0,86,0.00,,---,0.00,VWS V14.01,2013-01-30 15:37:00,
2013-01-30 10:42:00,67.7,63.4,29.83,SW,227,7.0,13.0,86,0.00,,---,0.00,VWS V14.01,2013-01-30 15:42:00,
2013-01-30 10:47:00,67.7,63.4,29.83,SW,233,11.0,13.0,86,0.00,,---,0.00,VWS V14.01,2013-01-30 15:47:00,
2013-01-30 10:52:00,67.6,63.3,29.84,SSW,198,4.0,13.0,86,0.00,,---,0.00,VWS V14.01,2013-01-30 15:52:00,
2013-01-30 10:57:00,67.7,63.4,29.83,WSW,245,16.0,22.0,86,0.00,,---,0.00,VWS V14.01,2013-01-30 15:57:00,
2013-01-30 11:00:00,67.7,63.4,29.83,SSE,168,9.0,13.0,86,0.00,,---,0.00,VWS V14.01,2013-01-30 16:00:00,
2013-01-30 11:02:00,67.6,63.6,29.83,SW,217,9.0,22.0,87,0.00,,---,0.00,VWS V14.01,2013-01-30 16:02:00,
2013-01-30 11:07:00,67.6,63.6,29.83,South,169,9.0,22.0,87,0.00,,---,0.00,VWS V14.01,2013-01-30 16:07:00,
2013-01-30 11:12:00,67.6,63.6,29.82,SSE,159,12.0,22.0,87,0.00,,---,0.00,VWS V14.01,2013-01-30 16:12:00,
2013-01-30 11:17:00,67.6,63.6,29.82,South,175,8.0,22.0,87,0.00,,---,0.00,VWS V14.01,2013-01-30 16:17:00,
2013-01-30 11:22:00,67.5,63.5,29.82,SSE,155,1.0,22.0,87,0.00,,---,0.00,VWS V14.01,2013-01-30 16:22:00,
2013-01-30 11:27:00,67.4,63.4,29.82,South,186,4.0,6.0,87,0.00,,---,0.00,VWS V14.01,2013-01-30 16:27:00,
2013-01-30 11:30:00,67.5,63.5,29.82,South,186,6.0,22.0,87,0.00,,---,0.00,VWS V14.01,2013-01-30 16:30:00,
2013-01-30 11:32:00,67.4,63.7,29.82,SW,221,7.0,12.0,88,0.00,,---,0.00,VWS V14.01,2013-01-30 16:32:00,
2013-01-30 11:37:00,67.3,63.6,29.81,WSW,241,2.0,12.0,88,0.00,,---,0.00,VWS V14.01,2013-01-30 16:37:00,
2013-01-30 11:42:00,67.2,63.5,29.81,South,182,5.0,13.0,88,0.00,,---,0.00,VWS V14.01,2013-01-30 16:42:00,
2013-01-30 11:47:00,67.2,63.5,29.80,South,186,5.0,13.0,88,0.00,,---,0.00,VWS V14.01,2013-01-30 16:47:00,
2013-01-30 11:52:00,67.2,63.5,29.79,SW,236,14.0,14.0,88,0.00,,---,0.00,VWS V14.01,2013-01-30 16:52:00,
2013-01-30 11:57:00,67.2,63.5,29.79,South,173,5.0,12.0,88,0.00,,---,0.00,VWS V14.01,2013-01-30 16:57:00,
2013-01-30 12:00:00,67.2,63.5,29.79,South,175,13.0,14.0,88,0.00,,---,0.00,VWS V14.01,2013-01-30 17:00:00,
2013-01-30 12:02:00,67.2,63.5,29.78,South,186,6.0,12.0,88,0.00,,---,0.00,VWS V14.01,2013-01-30 17:02:00,
2013-01-30 12:07:00,67.3,63.6,29.78,SE,144,4.0,12.0,88,0.00,,---,0.00,VWS V14.01,2013-01-30 17:07:00,
2013-01-30 12:12:00,67.3,63.6,29.78,SSW,199,7.0,15.0,88,0.00,,---,0.00,VWS V14.01,2013-01-30 17:12:00,
2013-01-30 12:17:00,67.4,63.7,29.77,SW,236,5.0,15.0,88,0.00,,---,0.00,VWS V14.01,2013-01-30 17:17:00,
2013-01-30 12:23:00,67.3,63.6,29.76,South,183,5.0,15.0,88,0.00,,---,0.00,VWS V14.01,2013-01-30 17:23:00,
2013-01-30 12:28:00,67.3,64.0,29.76,South,183,9.0,11.0,89,0.00,,---,0.00,VWS V14.01,2013-01-30 17:28:00,
2013-01-30 12:30:00,67.3,63.6,29.77,South,176,9.0,15.0,88,0.00,,---,0.00,VWS V14.01,2013-01-30 17:30:00,
2013-01-30 12:33:00,67.2,63.8,29.76,SW,236,7.0,11.0,89,0.00,,---,0.00,VWS V14.01,2013-01-30 17:33:00,
2013-01-30 12:38:00,67.2,63.8,29.76,SSW,206,7.0,13.0,89,0.00,,---,0.00,VWS V14.01,2013-01-30 17:38:00,
2013-01-30 12:43:00,67.0,64.0,29.75,South,184,8.0,15.0,90,0.00,,---,0.00,VWS V14.01,2013-01-30 17:43:00,
2013-01-30 12:48:00,66.9,63.9,29.75,South,173,2.0,15.0,90,0.00,,---,0.00,VWS V14.01,2013-01-30 17:48:00,
2013-01-30 12:53:00,66.8,63.8,29.75,SSE,161,5.0,15.0,90,0.00,,---,0.00,VWS V14.01,2013-01-30 17:53:00,
2013-01-30 12:58:00,66.9,63.9,29.75,SSW,203,8.0,9.0,90,0.00,,---,0.00,VWS V14.01,2013-01-30 17:58:00,
2013-01-30 13:00:00,66.9,63.9,29.75,SSE,157,6.0,15.0,90,0.00,,---,0.00,VWS V14.01,2013-01-30 18:00:00,
2013-01-30 13:03:00,67.1,63.8,29.75,South,186,7.0,12.0,89,0.00,,---,0.00,VWS V14.01,2013-01-30 18:03:00,
2013-01-30 13:08:00,67.3,64.0,29.74,WSW,250,4.0,12.0,89,0.00,,---,0.00,VWS V14.01,2013-01-30 18:08:00,
2013-01-30 13:13:00,67.4,63.7,29.75,SSW,199,8.0,12.0,88,0.00,,---,0.00,VWS V14.01,2013-01-30 18:13:00,
2013-01-30 13:18:00,67.6,63.9,29.74,SSE,156,4.0,12.0,88,0.00,,---,0.00,VWS V14.01,2013-01-30 18:18:00,
2013-01-30 13:23:00,67.7,64.0,29.73,SW,227,11.0,12.0,88,0.00,,---,0.00,VWS V14.01,2013-01-30 18:23:00,
2013-01-30 13:28:00,67.8,63.8,29.73,SSE,164,1.0,8.0,87,0.00,,---,0.00,VWS V14.01,2013-01-30 18:28:00,
2013-01-30 13:30:00,67.8,63.8,29.73,SSE,161,7.0,12.0,87,0.00,,---,0.00,VWS V14.01,2013-01-30 18:30:00,
2013-01-30 13:33:00,68.0,64.0,29.72,ESE,113,4.0,10.0,87,0.00,,---,0.00,VWS V14.01,2013-01-30 18:33:00,
2013-01-30 13:38:00,68.1,64.1,29.72,SSW,213,5.0,10.0,87,0.00,,---,0.00,VWS V14.01,2013-01-30 18:38:00,
2013-01-30 13:43:00,68.3,64.0,29.71,SW,225,4.0,12.0,86,0.00,,---,0.00,VWS V14.01,2013-01-30 18:43:00,
2013-01-30 13:48:00,68.6,64.2,29.71,South,182,8.0,12.0,86,0.00,,---,0.00,VWS V14.01,2013-01-30 18:48:00,
2013-01-30 13:53:00,69.1,64.1,29.70,South,169,7.0,12.0,84,0.00,,---,0.00,VWS V14.01,2013-01-30 18:53:00,
2013-01-30 13:58:00,69.6,64.6,29.69,South,191,2.0,7.0,84,0.00,,---,0.00,VWS V14.01,2013-01-30 18:58:00,
2013-01-30 14:00:00,69.4,64.4,29.69,ENE,59,4.0,12.0,84,0.00,,---,0.00,VWS V14.01,2013-01-30 19:00:00,
2013-01-30 14:03:00,69.9,64.5,29.69,SW,230,1.0,16.0,83,0.00,,---,0.00,VWS V14.01,2013-01-30 19:03:00,
2013-01-30 14:08:00,70.1,64.7,29.69,SSW,194,6.0,16.0,83,0.00,,---,0.00,VWS V14.01,2013-01-30 19:08:00,
2013-01-30 14:13:00,70.2,64.4,29.68,WSW,250,8.0,16.0,82,0.00,,---,0.00,VWS V14.01,2013-01-30 19:13:00,
2013-01-30 14:18:00,70.2,64.1,29.67,SW,215,7.0,16.0,81,0.00,,---,0.00,VWS V14.01,2013-01-30 19:18:00,
2013-01-30 14:23:00,70.3,64.2,29.67,West,259,15.0,16.0,81,0.00,,---,0.00,VWS V14.01,2013-01-30 19:23:00,
2013-01-30 14:28:00,70.5,64.4,29.66,SW,226,7.0,11.0,81,0.00,,---,0.00,VWS V14.01,2013-01-30 19:28:00,
2013-01-30 14:30:00,70.4,64.3,29.67,SW,223,6.0,16.0,81,0.00,,---,0.00,VWS V14.01,2013-01-30 19:30:00,
2013-01-30 14:33:00,70.7,64.2,29.66,SW,217,4.0,12.0,80,0.00,,---,0.00,VWS V14.01,2013-01-30 19:33:00,
2013-01-30 14:38:00,70.8,64.3,29.66,South,186,7.0,12.0,80,0.00,,---,0.00,VWS V14.01,2013-01-30 19:38:00,
2013-01-30 14:43:00,71.0,64.5,29.66,WSW,249,4.0,15.0,80,0.00,,---,0.00,VWS V14.01,2013-01-30 19:43:00,
2013-01-30 14:48:00,71.3,64.5,29.65,West,268,5.0,15.0,79,0.00,,---,0.00,VWS V14.01,2013-01-30 19:48:00,
2013-01-30 14:53:00,71.4,64.6,29.65,SE,130,2.0,15.0,79,0.00,,---,0.00,VWS V14.01,2013-01-30 19:53:00,
2013-01-30 14:58:00,71.5,64.3,29.65,South,177,8.0,8.0,78,0.00,,---,0.00,VWS V14.01,2013-01-30 19:58:00,
2013-01-30 15:00:00,71.5,64.3,29.65,South,179,8.0,15.0,78,0.00,,---,0.00,VWS V14.01,2013-01-30 20:00:00,
2013-01-30 15:03:00,71.6,64.4,29.65,SSW,196,11.0,12.0,78,0.00,,---,0.00,VWS V14.01,2013-01-30 20:03:00,
2013-01-30 15:08:00,71.6,64.4,29.64,WSW,246,13.0,13.0,78,0.00,,---,0.00,VWS V14.01,2013-01-30 20:08:00,
2013-01-30 15:13:00,71.6,64.4,29.64,SSW,202,6.0,13.0,78,0.00,,---,0.00,VWS V14.01,2013-01-30 20:13:00,
2013-01-30 15:18:00,71.4,64.2,29.64,SSW,196,7.0,13.0,78,0.00,,---,0.00,VWS V14.01,2013-01-30 20:18:00,
2013-01-30 15:23:00,71.3,64.1,29.63,South,188,6.0,20.0,78,0.00,,---,0.00,VWS V14.01,2013-01-30 20:23:00,
2013-01-30 15:28:00,71.2,64.4,29.63,South,178,3.0,12.0,79,0.00,,---,0.00,VWS V14.01,2013-01-30 20:28:00,
2013-01-30 15:30:00,71.2,64.4,29.63,SE,145,7.0,20.0,79,0.00,,---,0.00,VWS V14.01,2013-01-30 20:30:00,
2013-01-30 15:33:00,71.2,64.4,29.63,South,178,8.0,12.0,79,0.00,,---,0.00,VWS V14.01,2013-01-30 20:33:00,
2013-01-30 15:38:00,71.2,64.4,29.64,South,171,5.0,12.0,79,0.00,,---,0.00,VWS V14.01,2013-01-30 20:38:00,
2013-01-30 15:43:00,71.2,64.4,29.63,SSE,153,7.0,12.0,79,0.00,,---,0.00,VWS V14.01,2013-01-30 20:43:00,
2013-01-30 15:48:00,71.2,64.4,29.62,SE,135,2.0,12.0,79,0.00,,---,0.00,VWS V14.01,2013-01-30 20:48:00,
2013-01-30 15:53:00,71.3,64.5,29.62,South,182,8.0,12.0,79,0.00,,---,0.00,VWS V14.01,2013-01-30 20:53:00,
2013-01-30 15:58:00,71.4,64.2,29.62,SSW,206,7.0,8.0,78,0.00,,---,0.00,VWS V14.01,2013-01-30 20:58:00,
2013-01-30 16:00:00,71.4,64.2,29.62,SSE,148,4.0,12.0,78,0.00,,---,0.00,VWS V14.01,2013-01-30 21:00:00,
2013-01-30 16:03:00,71.5,64.3,29.61,South,175,7.0,8.0,78,0.00,,---,0.00,VWS V14.01,2013-01-30 21:03:00,
2013-01-30 16:08:00,71.6,64.4,29.61,SW,214,6.0,10.0,78,0.00,,---,0.00,VWS V14.01,2013-01-30 21:08:00,
2013-01-30 16:13:00,71.5,64.3,29.61,South,171,3.0,10.0,78,0.00,,---,0.00,VWS V14.01,2013-01-30 21:13:00,
2013-01-30 16:18:00,71.3,64.1,29.61,SSW,205,2.0,10.0,78,0.00,,---,0.00,VWS V14.01,2013-01-30 21:18:00,
2013-01-30 16:23:00,71.2,64.0,29.61,South,171,13.0,13.0,78,0.00,,---,0.00,VWS V14.01,2013-01-30 21:23:00,
2013-01-30 16:28:00,71.2,64.0,29.60,South,173,2.0,8.0,78,0.00,,---,0.00,VWS V14.01,2013-01-30 21:28:00,
2013-01-30 16:30:00,71.2,64.0,29.60,South,184,8.0,13.0,78,0.00,,---,0.00,VWS V14.01,2013-01-30 21:30:00,
2013-01-30 16:33:00,71.2,64.0,29.60,South,177,5.0,8.0,78,0.00,,---,0.00,VWS V14.01,2013-01-30 21:33:00,
2013-01-30 16:38:00,71.1,63.9,29.60,South,187,7.0,8.0,78,0.00,,---,0.00,VWS V14.01,2013-01-30 21:38:00,
2013-01-30 16:43:00,71.1,63.9,29.59,South,176,2.0,9.0,78,0.00,,---,0.00,VWS V14.01,2013-01-30 21:43:00,
2013-01-30 16:48:00,70.9,63.7,29.59,SSW,205,6.0,9.0,78,0.00,,---,0.00,VWS V14.01,2013-01-30 21:48:00,
2013-01-30 16:53:00,70.9,63.7,29.58,South,188,9.0,10.0,78,0.00,,---,0.00,VWS V14.01,2013-01-30 21:53:00,
2013-01-30 16:58:00,70.9,63.7,29.58,South,189,5.0,7.0,78,0.00,,---,0.00,VWS V14.01,2013-01-30 21:58:00,
2013-01-30 17:00:00,70.9,63.7,29.58,South,173,8.0,10.0,78,0.00,,---,0.00,VWS V14.01,2013-01-30 22:00:00,
2013-01-30 17:03:00,70.8,63.6,29.58,West,272,5.0,7.0,78,0.00,,---,0.00,VWS V14.01,2013-01-30 22:03:00,
2013-01-30 17:08:00,70.9,63.7,29.58,South,177,2.0,18.0,78,0.00,,---,0.00,VWS V14.01,2013-01-30 22:08:00,
2013-01-30 17:13:00,71.0,63.4,29.58,South,188,5.0,18.0,77,0.00,,---,0.00,VWS V14.01,2013-01-30 22:13:00,
2013-01-30 17:18:00,71.1,63.2,29.58,South,170,7.0,18.0,76,0.00,,---,0.00,VWS V14.01,2013-01-30 22:18:00,
2013-01-30 17:24:00,71.2,63.3,29.58,SSW,206,8.0,18.0,76,0.00,,---,0.00,VWS V14.01,2013-01-30 22:24:00,
2013-01-30 17:29:00,71.2,63.3,29.58,South,183,8.0,10.0,76,0.00,,---,0.00,VWS V14.01,2013-01-30 22:29:00,
2013-01-30 17:30:00,71.2,63.3,29.58,SSE,152,2.0,18.0,76,0.00,,---,0.00,VWS V14.01,2013-01-30 22:30:00,
2013-01-30 17:34:00,71.1,63.2,29.58,SSE,150,9.0,11.0,76,0.00,,---,0.00,VWS V14.01,2013-01-30 22:34:00,
2013-01-30 17:39:00,71.0,63.1,29.57,SSE,150,2.0,11.0,76,0.00,,---,0.00,VWS V14.01,2013-01-30 22:39:00,
2013-01-30 17:44:00,70.9,63.0,29.57,South,184,2.0,13.0,76,0.00,,---,0.00,VWS V14.01,2013-01-30 22:44:00,
2013-01-30 17:49:00,70.9,63.0,29.57,South,174,8.0,13.0,76,0.00,,---,0.00,VWS V14.01,2013-01-30 22:49:00,
2013-01-30 17:54:00,70.8,62.9,29.57,WNW,283,4.0,16.0,76,0.00,,---,0.00,VWS V14.01,2013-01-30 22:54:00,
2013-01-30 17:59:00,70.7,63.1,29.57,South,191,8.0,14.0,77,0.00,,---,0.00,VWS V14.01,2013-01-30 22:59:00,
2013-01-30 18:00:00,70.8,62.9,29.57,WSW,254,2.0,16.0,76,0.00,,---,0.00,VWS V14.01,2013-01-30 23:00:00,
2013-01-30 18:04:00,70.7,63.1,29.56,SE,132,5.0,14.0,77,0.00,,---,0.00,VWS V14.01,2013-01-30 23:04:00,
2013-01-30 18:09:00,70.5,63.0,29.55,South,169,15.0,15.0,77,0.00,,---,0.00,VWS V14.01,2013-01-30 23:09:00,
2013-01-30 18:14:00,70.3,62.8,29.55,South,187,4.0,15.0,77,0.00,,---,0.00,VWS V14.01,2013-01-30 23:14:00,
2013-01-30 18:19:00,70.1,62.9,29.55,WSW,241,7.0,15.0,78,0.00,,---,0.00,VWS V14.01,2013-01-30 23:19:00,
2013-01-30 18:24:00,69.9,62.7,29.54,SW,221,4.0,15.0,78,0.00,,---,0.00,VWS V14.01,2013-01-30 23:24:00,
2013-01-30 18:29:00,69.7,62.5,29.54,SSE,152,3.0,9.0,78,0.00,,---,0.00,VWS V14.01,2013-01-30 23:29:00,
2013-01-30 18:30:00,69.9,62.7,29.54,SSW,195,4.0,15.0,78,0.00,,---,0.00,VWS V14.01,2013-01-30 23:30:00,
2013-01-30 18:34:00,69.5,62.7,29.53,SE,144,7.0,11.0,79,0.00,,---,0.00,VWS V14.01,2013-01-30 23:34:00,
2013-01-30 18:39:00,69.4,62.6,29.53,SSW,209,9.0,11.0,79,0.00,,---,0.00,VWS V14.01,2013-01-30 23:39:00,
2013-01-30 18:44:00,69.4,62.6,29.52,SSW,201,7.0,20.0,79,0.00,,---,0.00,VWS V14.01,2013-01-30 23:44:00,
2013-01-30 18:49:00,69.3,62.5,29.52,South,182,5.0,20.0,79,0.00,,---,0.00,VWS V14.01,2013-01-30 23:49:00,
2013-01-30 18:54:00,69.3,62.2,29.52,South,176,10.0,20.0,78,0.00,,---,0.00,VWS V14.01,2013-01-30 23:54:00,
2013-01-30 18:59:00,69.3,62.2,29.52,South,171,7.0,13.0,78,0.00,,---,0.00,VWS V14.01,2013-01-30 23:59:00,
2013-01-30 19:00:00,69.3,62.2,29.52,SSW,202,9.0,20.0,78,0.00,,---,0.00,VWS V14.01,2013-01-31 00:00:00,
2013-01-30 19:04:00,69.3,62.2,29.51,SSE,155,15.0,15.0,78,0.00,,---,0.00,VWS V14.01,2013-01-31 00:04:00,
2013-01-30 19:09:00,69.3,62.2,29.52,SSW,194,6.0,15.0,78,0.00,,---,0.00,VWS V14.01,2013-01-31 00:09:00,
2013-01-30 19:14:00,69.2,62.1,29.50,SSE,168,10.0,15.0,78,0.00,,---,0.00,VWS V14.01,2013-01-31 00:14:00,
2013-01-30 19:19:00,69.1,62.0,29.50,SW,223,12.0,15.0,78,0.00,,---,0.00,VWS V14.01,2013-01-31 00:19:00,
2013-01-30 19:24:00,69.1,62.0,29.50,South,180,12.0,15.0,78,0.00,,---,0.00,VWS V14.01,2013-01-31 00:24:00,
2013-01-30 19:29:00,69.0,61.9,29.50,SSE,161,6.0,15.0,78,0.00,,---,0.00,VWS V14.01,2013-01-31 00:29:00,
2013-01-30 19:30:00,69.1,62.0,29.49,NNW,348,3.0,15.0,78,0.00,,---,0.00,VWS V14.01,2013-01-31 00:30:00,
2013-01-30 19:34:00,69.0,61.9,29.49,WSW,250,6.0,15.0,78,0.00,,---,0.00,VWS V14.01,2013-01-31 00:34:00,
2013-01-30 19:40:00,69.0,61.9,29.49,SSW,209,10.0,21.0,78,0.00,,---,0.00,VWS V14.01,2013-01-31 00:40:00,
2013-01-30 19:45:00,69.0,61.9,29.49,East,90,2.0,21.0,78,0.00,,---,0.00,VWS V14.01,2013-01-31 00:45:00,
2013-01-30 19:50:00,69.0,61.9,29.49,SW,236,3.0,21.0,78,0.00,,---,0.00,VWS V14.01,2013-01-31 00:50:00,
2013-01-30 19:55:00,69.1,61.6,29.48,SSW,209,2.0,21.0,77,0.00,,---,0.00,VWS V14.01,2013-01-31 00:55:00,
2013-01-30 20:00:00,69.2,61.7,29.48,SE,144,3.0,12.0,77,0.00,,---,0.00,VWS V14.01,2013-01-31 01:00:00,
2013-01-30 20:05:00,69.2,61.7,29.47,South,191,5.0,15.0,77,0.00,,---,0.00,VWS V14.01,2013-01-31 01:05:00,
2013-01-30 20:10:00,69.2,61.7,29.47,South,171,5.0,15.0,77,0.00,,---,0.00,VWS V14.01,2013-01-31 01:10:00,
2013-01-30 20:15:00,69.3,61.8,29.47,WSW,246,6.0,15.0,77,0.00,,---,0.00,VWS V14.01,2013-01-31 01:15:00,
2013-01-30 20:20:00,69.2,61.7,29.46,NW,305,6.0,20.0,77,0.00,,---,0.00,VWS V14.01,2013-01-31 01:20:00,
2013-01-30 20:25:00,69.3,61.8,29.46,South,182,7.0,20.0,77,0.00,,---,0.00,VWS V14.01,2013-01-31 01:25:00,
2013-01-30 20:30:00,69.3,61.8,29.46,SSW,212,14.0,14.0,77,0.00,,---,0.00,VWS V14.01,2013-01-31 01:30:00,
2013-01-30 20:35:00,69.4,61.9,29.46,SW,218,7.0,14.0,77,0.00,,---,0.00,VWS V14.01,2013-01-31 01:35:00,
2013-01-30 20:40:00,69.4,61.9,29.47,South,188,7.0,14.0,77,0.00,,---,0.00,VWS V14.01,2013-01-31 01:40:00,
2013-01-30 20:45:00,69.4,61.9,29.45,SSW,205,10.0,14.0,77,0.00,,---,0.00,VWS V14.01,2013-01-31 01:45:00,
2013-01-30 20:50:00,69.5,62.0,29.44,SSW,194,6.0,14.0,77,0.00,,---,0.00,VWS V14.01,2013-01-31 01:50:00,
2013-01-30 20:55:00,69.4,61.9,29.43,SSE,166,5.0,14.0,77,0.00,,---,0.00,VWS V14.01,2013-01-31 01:55:00,
2013-01-30 21:00:00,69.5,62.0,29.43,SSE,168,11.0,14.0,77,0.00,,---,0.00,VWS V14.01,2013-01-31 02:00:00,
2013-01-30 21:05:00,69.5,62.0,29.43,SW,234,13.0,14.0,77,0.00,,---,0.00,VWS V14.01,2013-01-31 02:05:00,
2013-01-30 21:10:00,69.6,62.1,29.43,SSE,161,7.0,14.0,77,0.00,,---,0.00,VWS V14.01,2013-01-31 02:10:00,
2013-01-30 21:15:00,69.7,62.5,29.43,WSW,256,30.0,30.0,78,0.00,,---,0.00,VWS V14.01,2013-01-31 02:15:00,
2013-01-30 21:20:00,69.7,62.5,29.43,WSW,252,26.0,30.0,78,0.00,,---,0.00,VWS V14.01,2013-01-31 02:20:00,
2013-01-30 21:25:00,69.8,62.6,29.42,SSE,156,9.0,30.0,78,0.00,,---,0.00,VWS V14.01,2013-01-31 02:25:00,
2013-01-30 21:30:00,69.7,62.9,29.42,SW,232,12.0,20.0,79,0.00,,---,0.00,VWS V14.01,2013-01-31 02:30:00,
2013-01-30 21:35:00,69.2,63.1,29.42,SW,220,10.0,20.0,81,0.00,,---,0.00,VWS V14.01,2013-01-31 02:35:00,
2013-01-30 21:40:00,68.7,63.0,29.42,South,175,9.0,20.0,82,0.00,,---,0.00,VWS V14.01,2013-01-31 02:40:00,
2013-01-30 21:45:00,68.2,63.2,29.41,SSW,206,5.0,20.0,84,0.01,,---,0.01,VWS V14.01,2013-01-31 02:45:00,
2013-01-30 21:50:00,67.8,63.1,29.41,SW,236,14.0,20.0,85,0.01,,---,0.01,VWS V14.01,2013-01-31 02:50:00,
2013-01-30 21:55:00,67.7,63.0,29.40,SSW,202,10.0,20.0,85,0.01,,---,0.01,VWS V14.01,2013-01-31 02:55:00,
2013-01-30 22:00:00,67.5,63.2,29.40,WSW,240,14.0,15.0,86,0.02,,---,0.02,VWS V14.01,2013-01-31 03:00:00,
2013-01-30 22:05:00,67.5,63.5,29.40,SSE,155,4.0,15.0,87,0.02,,---,0.02,VWS V14.01,2013-01-31 03:05:00,
2013-01-30 22:10:00,67.2,63.2,29.39,SSW,204,7.0,15.0,87,0.02,,---,0.02,VWS V14.01,2013-01-31 03:10:00,
2013-01-30 22:15:00,67.2,63.5,29.39,SW,226,4.0,15.0,88,0.03,,---,0.03,VWS V14.01,2013-01-31 03:15:00,
2013-01-30 22:20:00,67.0,63.3,29.39,WNW,296,4.0,15.0,88,0.03,,---,0.03,VWS V14.01,2013-01-31 03:20:00,
2013-01-30 22:25:00,66.8,63.5,29.38,SSE,155,5.0,15.0,89,0.03,,---,0.03,VWS V14.01,2013-01-31 03:25:00,
2013-01-30 22:30:00,66.7,63.4,29.37,SW,224,10.0,12.0,89,0.03,,---,0.03,VWS V14.01,2013-01-31 03:30:00,
2013-01-30 22:35:00,66.6,63.3,29.37,SSW,210,7.0,12.0,89,0.03,,---,0.03,VWS V14.01,2013-01-31 03:35:00,
2013-01-30 22:40:00,66.5,63.2,29.36,SW,232,9.0,12.0,89,0.03,,---,0.03,VWS V14.01,2013-01-31 03:40:00,
2013-01-30 22:45:00,66.6,63.3,29.35,South,177,7.0,12.0,89,0.03,,---,0.03,VWS V14.01,2013-01-31 03:45:00,
2013-01-30 22:50:00,66.8,63.5,29.36,SSW,195,15.0,15.0,89,0.04,,---,0.04,VWS V14.01,2013-01-31 03:50:00,
2013-01-30 22:55:00,66.7,63.4,29.36,South,169,9.0,15.0,89,0.04,,---,0.04,VWS V14.01,2013-01-31 03:55:00,
2013-01-30 23:00:00,66.5,63.5,29.35,SSE,155,9.0,13.0,90,0.06,,---,0.07,VWS V14.01,2013-01-31 04:00:00,
2013-01-30 23:05:00,66.1,63.4,29.39,NW,305,7.0,13.0,91,0.14,,---,0.15,VWS V14.01,2013-01-31 04:05:00,
2013-01-30 23:10:00,65.6,63.5,29.41,NW,324,5.0,13.0,93,0.30,,---,0.31,VWS V14.01,2013-01-31 04:10:00,
2013-01-30 23:15:00,65.1,63.3,29.40,SW,215,11.0,13.0,94,0.40,,---,0.41,VWS V14.01,2013-01-31 04:15:00,
2013-01-30 23:20:00,64.7,62.6,29.40,NW,311,16.0,16.0,93,0.43,,---,0.44,VWS V14.01,2013-01-31 04:20:00,
2013-01-30 23:25:00,64.6,62.5,29.40,WSW,237,11.0,16.0,93,0.43,,---,0.44,VWS V14.01,2013-01-31 04:25:00,
2013-01-30 23:30:00,64.2,61.2,29.40,WSW,254,9.0,19.0,90,0.41,,---,0.44,VWS V14.01,2013-01-31 04:30:00,
2013-01-30 23:35:00,63.8,60.2,29.41,WSW,249,8.0,19.0,88,0.41,,---,0.44,VWS V14.01,2013-01-31 04:35:00,
2013-01-30 23:40:00,63.3,59.7,29.40,West,271,8.0,19.0,88,0.41,,---,0.44,VWS V14.01,2013-01-31 04:40:00,
2013-01-30 23:46:00,62.8,58.9,29.41,SSW,196,6.0,19.0,87,0.41,,---,0.44,VWS V14.01,2013-01-31 04:46:00,
2013-01-30 23:51:00,62.2,57.6,29.42,NW,307,6.0,21.0,85,0.41,,---,0.44,VWS V14.01,2013-01-31 04:51:00,
2013-01-30 23:56:00,61.5,57.3,29.41,West,265,5.0,5.0,86,0.40,,---,0.00,VWS V14.01,2013-01-31 04:56:00,